11:39
Airports
History
Links
Donate
Help keep this website running!
PayPal
Bitcoin
This page is community maintained. The information is intended for PC simulator navigation or reference.
Always use approved charts for navigation.
SC67
Country Squire
Country Squire (SC67)
Rock Hill, South Carolina, United States (29730)
4
Lat/Lng:34° 54' 35.51" N / 81° 4' 29.28" W
34.909864 / -81.074801
Elevation:587'ft / 179mMSL
ID / ICAO:SC67
Runways:1
Longest:09-27
Grass 789m / 2,587ft
Nearby Weather11:07 GMT 2018-01-23
Nearby weather at KUZA, Rock Hill/york Co/bryant Field located 5.5 nautical miles from SC67
Altimeter: 29.79
Visibility: 10.0 statute miles
Wind: 10 knots (from 230°)
Temp: 17°c / 63°f
Humidity: 93.8%

METAR: KUZA 231107Z AUTO 23010KT 10SM BKN012 OVC020 17/16 A2979 RMK AO2 T01670161

(Powered by phpweather)
Nearby VORs <50NM
Nearby NDBs
Runway 09 / 27
Dimensions:788.6 x 30.5m 2587' x 100'ft
Surface:Grass
Runway 09 [A]Runway 27 [B]
Heading:084°TH 264°TH
Lat:
Lng:
34° 54' 34.39"N
81° 4' 44.88"W
34° 54' 36.63"N
81° 4' 13.69"W
User Notes and Comments
34° 54' 35.51" N / 81° 4' 29.28" W
Distance To
Airport ID:
Nearby Airports
(U) Rock Hill/york Co/bryant Field 5.5 NM
KUZA ( WX ) N 10°
(R) Bethel-lake Wylie 10.3 NM
SC08 NNW 339°
(U) Chester Catawba Rgnl 10.8 NM
KDCM SW 219°
4 York 13.1 NM
36A NW 309°
4 Hawks Knoll 16.6 NM
2NC1 ENE 68°
(U) Lancaster County-mc Whirter Fi 18.0 NM
KLKR SE 135°
(U) Jaars-townsend 18.8 NM
N52 E 99°
VFR Chart
Flight Planning at SkyVector.com